Location: Mountain View
(37.3861°N, 122.0839°W)
Time: 08:54:42
(UTC-07:00)

Hubble Space Telescope - Visible Passes

Search period start: 23 August 2017 00:00
Search period end: 02 September 2017 00:00
Orbit: 538 x 542 km, 28.5° (Epoch: 22 August)

Date Brightness Start Highest point End Pass type
(mag) Time Alt. Az. Time Alt. Az. Time Alt. Az.
23 Aug 2.5 04:45:56 19° SSE 04:45:56 19° SSE 04:48:02 10° SE visible
24 Aug 3.0 04:36:43 14° SSE 04:36:43 14° SSE 04:37:42 10° SE visible
01 Sep 2.9 20:18:47 10° S 20:20:14 12° SSE 20:21:40 10° SE visible
